Regional Weather Roundup
Issued by NWS

Home | Current Version | Previous Version | Graphics & Text | Print | Product List | Glossary On
Versions: 1 2 3 4 5 6 7 8 9 10 11 12 13 14 15 16 17 18 19 20 21 22 23 24 25 26 27 28 29 30 31 32 33 34 35 36 37 38 39 40 41 42 43 44 45 46 47 48 49 50
000
ASUS45 KCYS 040410
RWRWY

WYOMING REGIONAL WEATHER ROUNDUP
NATIONAL WEATHER SERVICE CHEYENNE WY
1000 PM MDT SUN MAY 03 2015

NOTE:  "FAIR" INDICATES FEW OR NO CLOUDS BELOW 12,000 FEET
WITH NO SIGNIFICANT WEATHER AND/OR OBSTRUCTIONS TO VISIBILITY.

WYZ001-040500-
YELLOWSTONE NATIONAL PARK

CITY           SKY/WX    TMP DP  RH WIND       PRES   REMARKS
LK YELLOWSTONE   N/A     34  32  92 NW3       30.13R
W YELLOWSTONE  NOT AVBL

$$
WYZ002>013-054>058-071-098>099-040500-
NORTHERN WYOMING

CITY           SKY/WX    TMP DP  RH WIND       PRES   REMARKS
JACKSON        MOCLDY    46  45  93 CALM      30.07R
CODY           CLOUDY    52  43  71 SW7       30.02S
GREYBULL       CLOUDY    63  38  39 NW12      29.96R
WORLAND        CLOUDY    58  41  53 NW8       29.99R
SHERIDAN       FAIR      51  41  68 NE3       30.03R
BUFFALO        CLOUDY    53  44  71 S7        30.08R
GILLETTE       LGT RAIN  49  44  83 CALM      30.07R
HULETT         LGT RAIN  50  41  71 S3        30.11R
NEWCASTLE      FAIR      55  32  41 E15G23    30.05R

$$
WYZ014>020-022>026-101>103-040500-
CENTRAL WYOMING

CITY           SKY/WX    TMP DP  RH WIND       PRES   REMARKS
BIG PINEY      MOCLDY    44  40  85 N5        30.11R
PINEDALE       CLOUDY    43  41  93 NW7       30.11S
DUBOIS         FAIR      43  34  70 NW6       30.08R
LANDER         FAIR      52  41  66 NW6       30.00R
RIVERTON       CLOUDY    54  40  59 E10       30.01R
CASPER         MOCLDY    49  46  90 NW7       30.02R
DOUGLAS        RAIN      51  48  89 W3        30.07S FOG

$$
WYZ021-027>030-104>119-040500-
SOUTHERN WYOMING

CITY           SKY/WX    TMP DP  RH WIND       PRES   REMARKS
EVANSTON       FAIR      47  39  74 E15       30.06R
KEMMERER       MOCLDY    43  41  93 NE6       30.09R
FORT BRIDGER   MOCLDY    45  43  93 SE10      30.10R
ROCK SPRINGS   FAIR      46  37  71 NW8       30.09R
DIXON          CLOUDY    50  40  68 E9        30.09S
RAWLINS        FAIR      44  40  85 E5        30.08R
SARATOGA       CLOUDY    45  41  87 S6        30.10S
LARAMIE        FAIR      41  39  93 NE7       30.12S
CHEYENNE       MOCLDY    49  43  80 NW3       30.11R
TORRINGTON     MOCLDY    59  41  51 SW7       30.06R
PINE BLUFFS    CLOUDY    52  46  82 CALM      30.08R

$$



USA.gov is the U.S. government's official web portal to all federal, state and local government web resources and services.